Viciebsk, Belarus

11:49 PM +03 on March 29, 2017 (GMT +0300)
Vitebsk

Weather History for UMII - December, 2012

Change the Weather History Date:

Thursday, December 13, 2012

  Actual Average Record
Temperature  
Mean Temperature 24 °F -  
Max Temperature 28 °F 26 °F - ()
Min Temperature 17 °F 15 °F - ()
Degree Days  
Heating Degree Days 40    
Moisture  
Dew Point 20 °F    
Average Humidity 82    
Maximum Humidity 93    
Minimum Humidity 51    
Precipitation  
Precipitation 0.03 in 0.06 in - ()
Sea Level Pressure  
Sea Level Pressure 29.99 in    
Wind  
Wind Speed 8 mph ()    
Max Wind Speed 16 mph    
Max Gust Speed 25 mph    
Visibility 2.8 miles    
Events Snow    
T = Trace of Precipitation, MM = Missing Value Source: Averaged Metar Reports

Daily Weather History Graph

Daily Weather History Graph

Search for Another Location

Airport or City:

Trip Planner

Search our weather history database for the weather conditions in past years. The results will help you decide how hot, cold, wet, or windy it might be!

Date:

Astronomy

Dec. 13, 2012 Rise Set
Actual Time 9:17 AM +03 4:29 PM +03
Civil Twilight 8:31 AM +03 5:15 PM +03
Nautical Twilight 7:44 AM +03 6:02 PM +03
Astronomical Twilight 6:59 AM +03 6:47 PM +03
Moon 9:02 AM +03 (12/13) 4:53 PM +03 (12/13)
Length of Visible Light 8h 43m
Length of Day
7h 12m
New Moon, 0% of the Moon is Illuminated
Dec 13
New Moon
Dec 20
First Quarter
Dec 28
Full
Jan 5
Last Quarter
Jan 11
New

Hourly Weather History & Observations

Time (+03) Temp. Windchill Dew Point Humidity Pressure Visibility Wind Dir Wind Speed Gust Speed Precip Events Conditions
12:00 AM 20 °F - 18 °F 90% 30.06 in 1 mi ENE 4.5 mph - - Snow Snow
3:00 AM 19 °F - 14 °F 72% 30.04 in 4 mi East 6.7 mph - - Snow Light Snow
6:00 AM 18 °F - 14 °F 77% 30.02 in 4 mi East 6.7 mph - - Snow Light Snow
8:00 AM 19.4 °F 7.4 °F 15.8 °F 86% 29.92 in - East 11.2 mph 17.9 mph N/A Snow Light Snow
8:25 AM 32.0 °F 23.2 °F 15.8 °F 51% 29.92 in 0.7 mi East 11.2 mph 17.9 mph N/A Snow Snow Showers
8:31 AM 19.4 °F 7.4 °F 15.8 °F 86% 29.92 in 1.2 mi East 11.2 mph 17.9 mph N/A Snow Snow Showers
8:48 AM 19.4 °F 8.8 °F 15.8 °F 86% 29.92 in - East 8.9 mph 15.7 mph N/A Snow Light Snow Showers
9:00 AM 20 °F - 16 °F 78% 30.01 in 1 mi ENE 4.5 mph - - Snow Snow
9:00 AM 21.2 °F 11.0 °F 17.6 °F 86% 29.92 in - East 8.9 mph 15.7 mph N/A Snow Light Snow Showers
10:00 AM 21.2 °F 8.5 °F 19.4 °F 93% 29.92 in - East 13.4 mph 20.1 mph N/A Snow Light Snow Showers
10:12 AM 21.2 °F 8.5 °F 19.4 °F 93% 29.92 in 1.7 mi East 13.4 mph 20.1 mph N/A Snow Light Snow Showers
11:00 AM 23.0 °F 10.8 °F 21.2 °F 93% 29.95 in - East 13.4 mph 20.1 mph N/A Snow Light Snow Showers
12:00 PM 26 °F - 21 °F 75% 30.02 in 3 mi SE 4.5 mph - - Snow Light Snow
12:00 PM 24.8 °F 13.1 °F 23.0 °F 93% 29.95 in - ESE 13.4 mph 20.1 mph N/A Snow Light Snow Showers
12:15 PM 24.8 °F 13.1 °F 23.0 °F 93% 29.95 in 3.7 mi ESE 13.4 mph 20.1 mph N/A Snow Light Snow Showers
1:00 PM 26.6 °F 15.3 °F 23.0 °F 86% 29.95 in - ESE 13.4 mph 22.4 mph N/A Snow Low Drifting Snow
1:18 PM 26.6 °F 15.3 °F 23.0 °F 86% 29.95 in - ESE 13.4 mph 22.4 mph N/A Snow Light Snow Showers
2:00 PM 26.6 °F 15.3 °F 23.0 °F 86% 29.98 in 3.7 mi ESE 13.4 mph 22.4 mph N/A Snow Light Snow Showers
3:00 PM 28 °F - 23 °F 73% 30.06 in 6 mi ESE 4.5 mph - - Snow Light Snow
3:00 PM 28.4 °F 16.7 °F 23.0 °F 80% 29.98 in - ESE 15.7 mph 24.6 mph N/A Snow Low Drifting Snow
3:25 PM 28.4 °F 17.6 °F 23.0 °F 80% 29.98 in - ESE 13.4 mph 22.4 mph N/A Snow Light Snow Showers
3:36 PM 28.4 °F 17.6 °F 23.0 °F 80% 29.98 in 1.7 mi ESE 13.4 mph 22.4 mph N/A Snow Light Snow Showers
4:00 PM 26.6 °F 15.3 °F 23.0 °F 86% 30.01 in - ESE 13.4 mph 22.4 mph N/A Snow Light Snow Showers
4:25 PM 26.6 °F 15.3 °F 23.0 °F 86% 30.01 in 1.2 mi ESE 13.4 mph 22.4 mph N/A Snow Snow Showers
6:00 PM 28 °F - 22 °F 71% 30.13 in 4 mi SE 4.5 mph - - Snow Light Snow
9:00 PM 26 °F - 21 °F 73% 30.20 in 5 mi East 6.7 mph - - Snow Light Snow